Back to catalog

ASTRA 1M

AliveCommunicationsGEO
NORAD 33436·PAYLOAD·🇱🇺 Luxembourg

Launched Nov 5, 2008 from Baikonur Cosmodrome

Loading…

TLE

FreshSource: CelesTrak SupGP

Epoch: Sep 14, 2026, 23:30 UTC

1 33436C 08057A   26257.97916667  .00000210  00000+0  00000+0 0  2570
2 33436   0.5220  82.6184 0003771  82.0573 201.1523  1.00271747    16

Track ASTRA 1M in real time with AllMySat

Download on the App Store